Location: Sternwarte Stuttgart
(48.7824°N, 9.1965°E)
Time: 11:36:28
(UTC+00:00)

Daily predictions for brighter satellites

Satellite Brightness Start Highest point End
(mag) Time Altitude Azimuth Time Altitude Azimuth Time Altitude Azimuth
CRYOSAT 2 4.4 15:56:57 10° S 16:01:49 86° E 16:06:43 10° N
ARGOS 3.5 15:58:46 10° SE 16:03:50 43° ENE 16:08:56 10° N
SMAP 3.5 16:00:20 10° SE 16:04:40 40° ENE 16:09:01 10° N
Cosmos 2333 Rocket 2.3 15:59:36 10° NNW 16:05:12 58° ENE 16:10:46 10° SE
Lacrosse 5 2.9 16:00:38 10° WNW 16:05:15 33° N 16:09:52 10° ENE
CZ-4B R/B 4.3 16:00:37 10° S 16:05:40 59° WSW 16:10:36 10° NNW
SeaSat 1 4.4 16:05:15 10° E 16:06:40 11° E 16:08:06 10° ESE
NOAA 12 4.2 16:01:23 10° SSE 16:06:43 88° WSW 16:12:05 10° NNW
BREEZE-M R/B 3.5 16:05:18 10° W 16:07:41 79° S 16:14:58 10° ESE
Orbus 7S? 4.1 16:03:53 10° SSW 16:07:47 32° SE 16:10:20 10° ENE
Cosmos 2322 4.2 16:02:28 10° NNW 16:07:51 39° NE 16:13:12 10° ESE
Cosmos 1862 3.4 16:04:17 10° NNW 16:08:16 80° W 16:12:12 10° S
Cosmos 2360 Rocket 2.2 16:03:09 10° NNW 16:08:50 86° ENE 16:14:29 10° SSE
Cosmos 405 4.3 16:07:50 10° NNW 16:10:58 41° W 16:14:05 10° SSW
Cosmos 192 4.4 16:06:30 10° S 16:11:19 60° ESE 16:16:09 10° NNE
Cosmos 1666 4.2 16:09:17 10° NNE 16:11:39 16° ENE 16:14:01 10° ESE
COSMO-SKYMED 1 4.5 16:11:14 10° ENE 16:12:52 12° E 16:14:31 10° ESE
Cosmos 2344 4.4 16:07:01 10° NW 16:14:34 41° NNE 16:24:20 10° E
Cosmos 1850 Rocket 4.4 16:09:49 10° NNW 16:15:04 70° WSW 16:20:14 10° SSE
Landsat 4 3.6 16:11:32 10° SSE 16:15:15 79° ENE 16:19:00 10° NNW
Cosmos-2242 3.0 16:13:41 10° S 16:17:57 76° E 16:22:16 10° NNE
Cosmos 1110 Rocket 4.0 16:13:04 10° SSW 16:18:14 70° ESE 16:23:29 10° NNE
Cosmos 2154 Rocket 4.0 16:17:09 10° S 16:23:20 72° E 16:29:32 10° NNE
Cosmos 2184 Rocket 4.1 16:18:06 10° S 16:24:16 87° W 16:30:30 10° N
Cosmos 389 Rocket 3.6 16:21:40 10° NNW 16:24:55 46° W 16:28:10 10° S
Cosmos 1782 4.4 16:23:25 10° ESE 16:25:42 15° E 16:27:15 13° ENE
Cosmos 968 Rocket 3.5 16:20:55 10° NNW 16:26:00 59° ENE 16:31:07 10° SE
Intercosmos 24 4.3 16:21:03 10° N 16:26:45 82° E 16:30:46 10° SSE
COSMOS 2428 3.1 16:21:57 10° NNW 16:27:21 41° NE 16:32:42 10° ESE
CZ-2C R/B 2.6 16:22:39 10° NNE 16:27:56 90° ESE 16:33:07 10° SSW
ATLAS 3B R/B 3.0 16:21:53 10° SSW 16:28:20 53° ESE 16:35:08 10° NE
CZ-4B R/B 3.3 16:26:14 10° SE 16:29:38 34° ENE 16:33:13 10° N
Lacrosse 5 rocket 3.7 16:26:38 10° WNW 16:30:30 30° SW 16:34:26 10° S
ADEOS 3.5 16:30:03 10° SSE 16:35:12 67° ENE 16:40:25 10° N
Meteor 1-31 Rocket 4.1 16:34:37 10° S 16:38:21 44° W 16:42:05 10° NNW
Nadezhda 3 Rocket 4.2 16:33:51 10° N 16:40:14 82° W 16:46:36 10° S
CZ-4C R/B 4.4 16:39:21 16° NE 16:41:14 23° E 16:44:21 10° SSE
USA 234 3.8 16:36:35 13° ENE 16:42:02 44° N 16:48:09 10° WNW
Cosmos 1766 Rocket 3.6 16:38:00 10° N 16:42:29 62° ENE 16:46:54 10° SSE
Cosmos 1331 Rocket 4.1 16:38:58 10° SSW 16:44:16 81° WNW 16:49:37 10° NNE
Cosmos 1500 3.3 16:40:43 10° N 16:44:25 49° ENE 16:48:05 10° SSE
SJ-11-01 4.2 16:40:31 10° SSE 16:45:11 68° ENE 16:49:51 10° N
CZ-4B R/B 4.3 16:42:23 10° ESE 16:46:35 23° ENE 16:50:44 10° N
SL-16 R/B 3.9 16:45:07 10° N 16:48:03 14° NNE 16:49:03 14° NE
Cosmos 44 4.3 16:44:25 10° NW 16:48:53 48° WSW 16:53:35 10° SSE
SL-27 R/B 2.7 16:46:02 10° S 16:49:04 39° ESE 16:50:42 22° NE
H-2A R/B 3.2 16:44:44 10° S 16:49:40 46° W 16:54:30 10° NNW
Cosmos 2219 Rocket 2.1 16:44:30 10° NNW 16:50:08 84° ENE 16:55:44 10° SSE
Meteor 1-20 Rocket 4.2 16:44:34 10° N 16:50:16 70° ENE 16:56:03 10° SSE
CENTAUR R/B 4.1 16:45:41 10° WNW 16:51:30 27° N 16:56:46 14° NE
SL-4 R/B 2.3 16:48:57 10° W 16:53:13 57° N 16:55:33 23° ENE
Cosmos 2218 Rocket 4.4 16:48:24 10° SSE 16:54:22 43° E 17:00:22 10° NNE
ISS -3.7 16:51:43 10° WNW 16:55:04 80° SSW 16:57:24 18° ESE
CZ-2D R/B 3.8 16:51:52 10° S 16:55:36 60° W 16:59:23 10° NNW
CZ-4B DEB 4.5 16:53:08 10° SE 16:58:22 45° ENE 17:03:37 10° N
Cosmos 1980 4.4 16:53:46 10° NNW 16:58:51 32° NE 17:02:18 18° E
Cosmos 2084 Rocket 4.5 16:56:34 10° S 16:59:43 23° ESE 17:00:24 22° ESE
SKYMED 2 4.2 16:59:00 19° NE 17:01:25 33° E 17:05:21 10° SSE
DELTA 2 DEB (DPAF) 4.0 16:57:36 10° NNE 17:02:03 84° ESE 17:06:27 10° SSW
NOAA 6 3.9 16:57:16 10° SSE 17:02:25 81° ENE 17:07:34 10° NNW
Cosmos 2237 Rocket 2.9 16:58:46 10° NNW 17:03:55 33° NE 17:06:58 20° E
Meteor PRIRODA 3.8 17:02:06 10° S 17:05:44 72° WSW 17:09:24 10° NNW
Cosmos 1833 4.5 17:01:14 10° SW 17:07:01 71° WNW 17:12:37 11° NNE
SL-08 RB Rocket 3.8 17:03:21 10° S 17:07:51 80° WSW 17:12:21 10° NNW
YAOGAN 1 4.1 17:09:32 19° NNE 17:09:32 19° NNE 17:11:24 10° N
BREEZE-M DEB (TANK) 4.1 17:04:44 10° W 17:08:23 89° S 17:20:45 13° ESE
SL-24 DEB 4.2 17:08:19 10° S 17:13:05 79° E 17:17:51 10° N
CZ-4C R/B 2.3 17:10:24 10° SW 17:15:13 68° NW 17:19:25 19° NE
Cosmos 1544 3.0 17:12:10 10° N 17:15:36 51° ENE 17:19:00 10° SSE
SJ 16-02 1.9 17:12:04 10° N 17:16:07 33° ENE 17:16:24 33° ENE
Cosmos 1602 4.0 17:13:57 10° NNW 17:17:47 67° W 17:21:34 10° S
Cosmos 1486 Rocket 3.9 17:13:21 10° NNW 17:18:32 61° ENE 17:23:40 10° SE
Cosmos 1992 Rocket 4.2 17:13:35 10° S 17:18:35 49° ESE 17:21:08 27° NE
NOSS 3-1 (A) 4.2 17:14:51 10° SSE 17:18:57 24° ESE 17:19:12 24° ESE
NOSS 3-1 (C) 3.4 17:16:36 10° SSW 17:21:31 47° ESE 17:23:52 31° ENE
BlueWalker 3 2.5 17:19:53 10° WNW 17:23:39 43° N 17:24:20 39° NE
Tiangong -0.2 17:23:46 10° SW 17:26:11 20° S 17:26:33 19° SSE
ARGOS Delta rocket 3.9 17:21:45 10° N 17:26:29 79° WNW 17:31:28 10° SSW
SL-08 R/B 3.7 17:23:22 10° N 17:27:56 60° WNW 17:32:26 10° SSW
Cosmos 2221 2.6 17:23:38 10° SSW 17:28:00 79° W 17:32:22 10° N
ATLAS CENTAUR R/B 1.2 17:25:16 10° NW 17:29:41 82° NE 17:31:31 32° SE
NOSS 0 Rocket 3.8 17:23:25 10° NNW 17:29:41 73° ENE 17:35:56 10° SE
NOSS 2-3 (D) 3.3 17:28:24 10° SW 17:32:16 78° SE 17:33:22 48° NE
NOSS 2-3 (C) 3.3 17:28:31 10° SW 17:32:24 83° SE 17:33:38 46° NE
Meteor 1-14 Rocket 4.4 17:28:05 10° N 17:33:30 47° ENE 17:38:58 10° SE
Cosmos 2341 Rocket 4.2 17:30:08 10° SSW 17:36:28 74° W 17:42:48 10° N
Cosmos 1302 Rocket 4.5 17:33:09 10° SW 17:38:19 59° WNW 17:42:28 16° NNE
Cosmos 1959 Rocket 4.3 17:32:20 10° S 17:38:25 83° E 17:44:34 10° N
SKYMED 3 4.4 17:40:17 57° ENE 17:40:48 63° ESE 17:44:59 10° S
DMSP B5D2-2 4.0 17:36:22 10° NNE 17:41:37 86° WNW 17:46:50 10° SSW
Timation 1 Rocket 4.2 17:35:50 10° SSW 17:41:47 80° ESE 17:44:51 31° NE
Cosmos 1842 Rocket 3.5 17:37:43 10° S 17:42:08 83° W 17:44:57 22° N
Cosmos 1461 4.4 17:38:39 10° NNW 17:41:34 26° NNE 17:41:34 26° NNE
COBE Rocket 4.3 17:39:07 10° S 17:44:06 68° W 17:49:14 10° NNW
SeaSat 1 2.3 17:43:25 44° NE 17:44:58 71° ESE 17:49:53 10° SSW
PSLV R/B 3.7 17:45:45 73° ENE 17:45:45 73° ENE 17:49:45 10° N
Cosmos 1933 3.6 17:42:27 10° SSW 17:46:26 66° W 17:48:37 26° N
Cosmos 1812 2.8 17:43:22 10° SSW 17:47:08 73° W 17:48:04 48° N
Cosmos 1666 3.7 17:43:36 10° NNW 17:47:15 47° W 17:50:53 10° SSW
Aureole 1 Rocket 3.5 17:43:52 10° NNW 17:48:26 55° ENE 17:49:09 51° E
Cosmos 1500 Rocket 3.3 17:44:29 10° N 17:48:49 77° E 17:53:08 10° SSE
Cosmos 2333 Rocket 4.4 17:44:28 10° NW 17:49:06 26° WSW 17:53:42 10° SSW
Lacrosse 5 2.5 17:44:26 10° NW 17:49:13 39° NNE 17:49:29 39° NNE
COSMO-SKYMED 1 2.5 17:47:37 32° N 17:49:38 82° WNW 17:53:58 10° SSW
Cosmos 864 Rocket 4.5 17:44:02 10° SSW 17:50:11 81° W 17:56:26 10° N
Cosmos 1408 Rocket 3.9 17:46:07 10° NNW 17:50:34 67° W 17:54:59 10° S
Cosmos 1782 3.6 17:57:39 10° SSW 18:01:27 49° WNW 18:02:45 34° NNW
Iridium 4 Rocket 4.1 17:57:25 10° SSW 18:02:36 54° W 18:07:22 10° N
MOS 1-B 4.2 17:57:42 10° SSE 18:03:28 86° ENE 18:09:18 10° NNW
Cosmos 1743 Rocket 3.6 18:02:19 10° NNW 18:06:47 81° W 18:06:49 81° WSW
Feng Yun 1-1 Rocket 4.4 18:09:36 57° NE 18:09:36 57° NE 18:14:52 10° N
Meteor 1-5 Rocket 4.5 18:03:21 10° NNW 18:09:14 74° W 18:15:11 10° S
Cosmos 1354 Rocket 3.8 18:05:09 10° NNW 18:10:31 81° ENE 18:10:40 80° E
COSMOS 2428 4.0 18:06:21 10° NW 18:11:35 39° WSW 18:16:47 10° S
Cosmos 2227 Rocket 3.9 18:06:54 10° S 18:08:32 18° SSE 18:08:32 18° SSE
Meteor 2-6 Rocket 4.3 18:08:54 10° S 18:14:04 61° SE 18:14:04 61° SE
Cosmos 2297 Rocket 2.6 18:09:28 10° S 18:13:43 47° SSE 18:13:43 47° SSE
NOSS 2-3 (E) 4.3 18:11:57 10° WSW 18:15:28 45° NW 18:15:28 45° NW
ATLAS 3B R/B 3.4 18:12:36 10° WSW 18:19:12 48° NW 18:22:23 30° NNE
Cosmos 1821 Rocket 3.9 18:17:44 10° S 18:24:02 86° W 18:27:31 28° N
USA 234 3.5 18:23:56 51° NNE 18:24:24 52° NNE 18:30:41 10° WNW
CZ-4B R/B 3.4 18:21:05 10° S 18:26:39 71° WSW 18:32:09 10° NNW
Okean O Rocket 4.2 18:30:56 11° NNW 18:30:56 11° NNW 18:31:05 10° NNW
Cosmos 1503 Rocket 4.4 18:22:09 10° NNW 18:27:27 63° WSW 18:28:55 45° SSW
Cosmos 2344 4.2 18:21:20 10° NW 18:30:04 83° SW 18:39:12 20° SSE
ISS -0.8 18:29:06 10° W 18:30:21 16° WSW 18:30:21 16° WSW
SL-4 R/B 3.8 18:28:44 10° WNW 18:30:55 29° WNW 18:30:55 29° WNW
SL-16 R/B 3.5 18:28:06 10° NNW 18:30:56 28° N 18:30:56 28° N
BREEZE-M DEB (TANK) 3.5 18:31:59 10° WNW 18:39:19 57° W 18:39:19 57° W
USA 229 DEB 4.2 18:35:49 10° SSW 18:39:59 43° S 18:39:59 43° S
USA 229 4.2 18:35:55 10° SSW 18:40:02 42° S 18:40:02 42° S
Cosmos 1980 4.3 18:37:42 10° NW 18:43:11 52° WSW 18:44:14 46° SW
CENTAUR R/B 3.8 18:37:30 10° NW 18:43:56 36° NNE 18:43:56 36° NNE
Cosmos 2237 Rocket 2.9 18:42:42 10° NW 18:48:14 51° WSW 18:48:52 49° SW
SJ 16-02 3.4 18:50:42 10° NW 18:53:24 26° WNW 18:53:24 26° WNW
CZ-4C R/B 3.9 19:00:22 10° WNW 19:04:36 26° NNW 19:04:36 26° NNW
ATLAS CENTAUR R/B 4.3 19:05:30 10° W 19:07:28 13° WSW 19:07:28 13° WSW
NOSS 3-1 (C) 4.4 19:07:15 10° WSW 19:11:17 38° WNW 19:11:17 38° WNW
Lacrosse 5 4.4 19:27:31 10° NW 19:28:42 17° WNW 19:28:42 17° WNW
